When you browse on this site, cookies collect data to enhance your experience and personalize the content and advertising you see.
Visit our Privacy Policy to learn more. By continuing to use the site, you agree to this use of cookies and data.

Hourly Weather Satif

Today, 25 September, Friday

Time Temperature Precipitation Wind Pressure Humidity
00:00 +24°C° 0 mm 2 mps 674 mmHg 45%
01:00 +23°C° 0 mm 2 mps 674 mmHg 46%
02:00 +23°C° 0 mm 2 mps 673 mmHg 48%
03:00 +21°C° 0 mm 2 mps 673 mmHg 49%
04:00 +21°C° 0 mm 2 mps 673 mmHg 50%
05:00 +21°C° 0 mm 2 mps 673 mmHg 50%
06:00 +21°C° 0 mm 2 mps 672 mmHg 51%
07:00 +23°C° 0 mm 2 mps 673 mmHg 45%
08:00 +25°C° 0 mm 3 mps 673 mmHg 39%
09:00 +27°C° 0 mm 4 mps 674 mmHg 32%
10:00 +27°C° 0 mm 6 mps 674 mmHg 32%
11:00 +28°C° 0 mm 8 mps 674 mmHg 32%
12:00 +28°C° 0 mm 11 mps 673 mmHg 32%
13:00 +27°C° 0 mm 10 mps 673 mmHg 37%
14:00 +26°C° 0 mm 9 mps 673 mmHg 42%
15:00 +24°C° 0 mm 9 mps 672 mmHg 47%
16:00 +23°C° 0.1 mm 7 mps 672 mmHg 55%
17:00 +21°C° 0.1 mm 6 mps 672 mmHg 64%
18:00 +19°C° 0.1 mm 5 mps 672 mmHg 72%
19:00 +17°C° 0.1 mm 5 mps 672 mmHg 73%
20:00 +16°C° 0.1 mm 5 mps 672 mmHg 73%
21:00 +15°C° 0.1 mm 5 mps 673 mmHg 74%
22:00 +14°C° 0 mm 5 mps 672 mmHg 73%
23:00 +14°C° 0 mm 4 mps 672 mmHg 72%

Tomorrow, 26 September, Saturday

Time Temperature Precipitation Wind Pressure Humidity
00:00 +13°C° 0 mm 4 mps 672 mmHg 71%
01:00 +12°C° 0 mm 4 mps 671 mmHg 70%
02:00 +12°C° 0 mm 5 mps 671 mmHg 69%
03:00 +10°C° 0 mm 5 mps 671 mmHg 68%
04:00 +10°C° 0 mm 5 mps 671 mmHg 70%
05:00 +10°C° 0 mm 5 mps 671 mmHg 71%
06:00 +10°C° 0 mm 5 mps 671 mmHg 72%
07:00 +11°C° 0 mm 6 mps 671 mmHg 67%
08:00 +11°C° 0 mm 7 mps 672 mmHg 62%
09:00 +12°C° 0 mm 7 mps 672 mmHg 57%
10:00 +12°C° 0 mm 7 mps 672 mmHg 55%
11:00 +14°C° 0 mm 6 mps 672 mmHg 53%
12:00 +15°C° 0 mm 6 mps 672 mmHg 51%
13:00 +15°C° 0 mm 5 mps 672 mmHg 50%
14:00 +15°C° 0 mm 5 mps 671 mmHg 49%
15:00 +15°C° 0 mm 4 mps 671 mmHg 48%
16:00 +14°C° 0 mm 4 mps 671 mmHg 52%
17:00 +14°C° 0 mm 4 mps 671 mmHg 56%
18:00 +13°C° 0 mm 4 mps 670 mmHg 59%
19:00 +13°C° 0 mm 3 mps 670 mmHg 61%
20:00 +12°C° 0 mm 3 mps 670 mmHg 62%
21:00 +13°C° 0 mm 2 mps 671 mmHg 63%
22:00 +12°C° 0 mm 2 mps 670 mmHg 64%
23:00 +12°C° 0 mm 2 mps 670 mmHg 65%

Day after tomorrow, 27 September, Sunday

Time Temperature Precipitation Wind Pressure Humidity
00:00 +12°C° 0 mm 1 mps 670 mmHg 66%
01:00 +12°C° 0 mm 1 mps 669 mmHg 68%
02:00 +11°C° 0 mm 1 mps 669 mmHg 69%
03:00 +11°C° 0 mm 1 mps 668 mmHg 71%
04:00 +11°C° 0 mm 1 mps 668 mmHg 71%
05:00 +11°C° 0 mm 1 mps 668 mmHg 71%
06:00 +10°C° 0 mm 2 mps 668 mmHg 71%
07:00 +12°C° 0 mm 2 mps 669 mmHg 65%
08:00 +14°C° 0 mm 2 mps 669 mmHg 59%
09:00 +14°C° 0 mm 3 mps 669 mmHg 53%
10:00 +16°C° 0 mm 3 mps 670 mmHg 48%
11:00 +18°C° 0 mm 4 mps 670 mmHg 43%
12:00 +19°C° 0 mm 5 mps 670 mmHg 38%
13:00 +20°C° 0 mm 5 mps 670 mmHg 39%
14:00 +20°C° 0 mm 6 mps 670 mmHg 39%
15:00 +20°C° 0 mm 6 mps 669 mmHg 40%
16:00 +19°C° 0.1 mm 5 mps 669 mmHg 46%
17:00 +17°C° 0.1 mm 5 mps 669 mmHg 53%
18:00 +17°C° 0.1 mm 4 mps 669 mmHg 59%
19:00 +15°C° 0.1 mm 4 mps 670 mmHg 63%
20:00 +16°C° 0.1 mm 3 mps 670 mmHg 67%
21:00 +14°C° 0.1 mm 3 mps 670 mmHg 70%
22:00 +15°C° 0 mm 2 mps 670 mmHg 73%
23:00 +14°C° 0 mm 2 mps 670 mmHg 76%

28 September, Monday

Time Temperature Precipitation Wind Pressure Humidity
00:00 +14°C° 0 mm 1 mps 670 mmHg 79%
01:00 +14°C° 0 mm 1 mps 670 mmHg 80%
02:00 +13°C° 0 mm 1 mps 670 mmHg 82%
03:00 +13°C° 0 mm 1 mps 670 mmHg 83%
04:00 +13°C° 0 mm 1 mps 670 mmHg 84%
05:00 +12°C° 0 mm 0 mps 671 mmHg 84%
06:00 +12°C° 0 mm 0 mps 671 mmHg 85%
07:00 +13°C° 0 mm 0 mps 672 mmHg 77%
08:00 +15°C° 0 mm 1 mps 672 mmHg 68%
09:00 +16°C° 0 mm 1 mps 673 mmHg 60%
10:00 +19°C° 0 mm 1 mps 673 mmHg 54%
11:00 +19°C° 0 mm 2 mps 674 mmHg 48%
12:00 +20°C° 0 mm 2 mps 674 mmHg 43%
13:00 +20°C° 0 mm 2 mps 674 mmHg 41%
14:00 +21°C° 0 mm 3 mps 674 mmHg 39%
15:00 +21°C° 0 mm 3 mps 674 mmHg 37%
16:00 +20°C° 0 mm 3 mps 674 mmHg 42%
17:00 +20°C° 0 mm 2 mps 674 mmHg 47%
18:00 +19°C° 0 mm 2 mps 674 mmHg 52%
19:00 +18°C° 0 mm 2 mps 674 mmHg 55%
20:00 +18°C° 0 mm 1 mps 674 mmHg 58%
21:00 +18°C° 0 mm 1 mps 674 mmHg 61%
22:00 +16°C° 0 mm 1 mps 674 mmHg 62%
23:00 +16°C° 0 mm 1 mps 674 mmHg 63%

29 September, Tuesday

Time Temperature Precipitation Wind Pressure Humidity
00:00 +16°C° 0 mm 1 mps 674 mmHg 64%
01:00 +15°C° 0 mm 1 mps 674 mmHg 64%
02:00 +15°C° 0 mm 1 mps 673 mmHg 63%
03:00 +15°C° 0 mm 1 mps 673 mmHg 63%
04:00 +15°C° 0 mm 1 mps 673 mmHg 61%
05:00 +15°C° 0 mm 2 mps 673 mmHg 60%
06:00 +15°C° 0 mm 2 mps 674 mmHg 58%
07:00 +17°C° 0 mm 3 mps 674 mmHg 50%
08:00 +20°C° 0 mm 4 mps 675 mmHg 43%
09:00 +22°C° 0 mm 5 mps 676 mmHg 35%
10:00 +23°C° 0 mm 5 mps 676 mmHg 34%
11:00 +24°C° 0 mm 6 mps 676 mmHg 33%
12:00 +26°C° 0 mm 7 mps 676 mmHg 31%
13:00 +26°C° 0 mm 7 mps 676 mmHg 32%
14:00 +26°C° 0 mm 7 mps 675 mmHg 33%
15:00 +26°C° 0 mm 6 mps 675 mmHg 34%
16:00 +25°C° 0 mm 5 mps 675 mmHg 37%
17:00 +22°C° 0 mm 4 mps 674 mmHg 40%
18:00 +21°C° 0 mm 3 mps 674 mmHg 43%
19:00 +21°C° 0 mm 3 mps 674 mmHg 45%
20:00 +20°C° 0 mm 3 mps 674 mmHg 47%
21:00 +20°C° 0 mm 2 mps 674 mmHg 49%
22:00 +19°C° 0 mm 3 mps 673 mmHg 49%
23:00 +19°C° 0 mm 3 mps 673 mmHg 48%

30 September, Wednesday

Time Temperature Precipitation Wind Pressure Humidity
00:00 +19°C° 0 mm 3 mps 673 mmHg 47%
01:00 +19°C° 0 mm 3 mps 673 mmHg 47%
02:00 +18°C° 0 mm 3 mps 672 mmHg 47%
03:00 +18°C° 0 mm 3 mps 672 mmHg 48%
04:00 +18°C° 0 mm 3 mps 672 mmHg 48%
05:00 +18°C° 0 mm 3 mps 672 mmHg 49%
06:00 +18°C° 0 mm 3 mps 672 mmHg 49%
07:00 +20°C° 0 mm 3 mps 672 mmHg 43%
08:00 +22°C° 0 mm 3 mps 673 mmHg 37%
09:00 +25°C° 0 mm 4 mps 673 mmHg 31%
10:00 +27°C° 0 mm 4 mps 673 mmHg 29%
11:00 +28°C° 0 mm 5 mps 673 mmHg 26%
12:00 +29°C° 0 mm 5 mps 674 mmHg 24%
13:00 +29°C° 0 mm 5 mps 673 mmHg 25%
14:00 +29°C° 0 mm 6 mps 673 mmHg 25%
15:00 +28°C° 0 mm 6 mps 672 mmHg 26%
16:00 +27°C° 0 mm 4 mps 672 mmHg 30%
17:00 +26°C° 0 mm 3 mps 672 mmHg 34%
18:00 +25°C° 0 mm 2 mps 671 mmHg 37%
19:00 +24°C° 0 mm 2 mps 671 mmHg 38%
20:00 +24°C° 0 mm 2 mps 671 mmHg 38%
21:00 +23°C° 0 mm 1 mps 671 mmHg 39%
22:00 +23°C° 0 mm 2 mps 671 mmHg 39%
23:00 +23°C° 0 mm 2 mps 670 mmHg 40%
Show more